User: anonymous
Location: Unspecified
(0.0000°N, 0.0000°E)
Time: 13:56:09
(UTC+02:00)
Language:

Cosmos 2279 Rocket - Orbit

View from above orbital plane
View from above orbital plane
View from above satellite
View from above satellite

Ground track
Ground track

The orbit data is extracted from the following two-line orbital elements,

1 23093U 94024B   14261.10442044  .00000078  00000-0  62915-4 0  9025
2 23093 082.9475 140.4722 0008860 298.4839 061.5425 13.77626351493313
Epoch (UTC): 18 September 2014 02:30:21
Eccentricity: 0.0008860
inclination: 82.9475°
perigee height: 966 km
apogee height: 979 km
right ascension of ascending node: 140.4722°
argument of perigee: 298.4839°
revolutions per day: 13.77626351
mean anomaly at epoch: 61.5425°
orbit number at epoch: 49331

The dashed part of the orbit path shows where the satellite is in the earth's shadow,  

DLR